Change the Weather History Date:

Saturday, March 22, 2014

  Actual Average (KBNO) Record (KBNO)
Temperature  
Mean Temperature 37 °F 39 °F  
Max Temperature 53 °F 51 °F 71 °F (1960)
Min Temperature 21 °F 27 °F 11 °F (1952)
Degree Days  
Heating Degree Days 28 26  
Month to date heating degree days 632  
Since 1 July heating degree days 6160  
Cooling Degree Days 0 0  
Month to date cooling degree days 0  
Year to date cooling degree days 0  
Moisture  
Dew Point 14 °F    
Average Humidity 45    
Maximum Humidity 86    
Minimum Humidity 13    
Precipitation  
Precipitation 0.00 in 0.04 in 0.39 in (2005)
Month to date precipitation 0.80  
Year to date precipitation 3.01  
Sea Level Pressure  
Sea Level Pressure 30.19 in    
Wind  
Wind Speed 4 mph (South)    
Max Wind Speed 8 mph    
Max Gust Speed -    
Visibility 10 miles    
Events      
T = Trace of Precipitation, MM = Missing Value Source: NWS Daily Summary

Daily Weather History Graph

Daily Weather History Graph

Search for Another Location

Airport or City:

Trip Planner

Search our weather history database for the weather conditions in past years. The results will help you decide how hot, cold, wet, or windy it might be!

Date:

Astronomy

Mar. 22, 2014 Rise Set
Actual Time 6:55 AM PDT 7:10 PM PDT
Civil Twilight 6:26 AM PDT 7:39 PM PDT
Nautical Twilight 5:52 AM PDT 8:14 PM PDT
Astronomical Twilight 5:17 AM PDT 8:49 PM PDT
Moon 12:45 AM PDT 10:31 AM PDT
Length of Visible Light 13h 13m
Length of Day
12h 15m
Waning Gibbous, 64% of the Moon is Illuminated
Mar 22
Waning Gibbous
Mar 23
Last Quarter
Mar 30
New
Apr 7
First Quarter
Apr 15
Full

Hourly Weather History & Observations

Time (PDT) Temp. Windchill Dew Point Humidity Pressure Visibility Wind Dir Wind Speed Gust Speed Precip Events Conditions
12:18 AM 30.2 °F 26.7 °F 19.4 °F 64% 30.19 in 10.0 mi SW 3.5 mph - N/A   Clear
12:35 AM 30.2 °F 25.4 °F 17.6 °F 60% 30.19 in 10.0 mi SW 4.6 mph - N/A   Clear
1:15 AM 28.4 °F 24.6 °F 17.6 °F 64% 30.19 in 10.0 mi SW 3.5 mph - N/A   Clear
1:37 AM 30.2 °F 26.7 °F 17.6 °F 60% 30.19 in 10.0 mi SW 3.5 mph - N/A   Clear
1:58 AM 30.2 °F - 17.6 °F 60% 30.20 in 10.0 mi Calm Calm - N/A   Clear
2:15 AM 30.2 °F 26.7 °F 17.6 °F 60% 30.20 in 10.0 mi SW 3.5 mph - N/A   Clear
2:38 AM 28.4 °F 23.3 °F 17.6 °F 64% 30.20 in 10.0 mi SW 4.6 mph - N/A   Clear
3:15 AM 28.4 °F 24.6 °F 17.6 °F 64% 30.20 in 10.0 mi SW 3.5 mph - N/A   Clear
3:38 AM 26.6 °F 22.6 °F 17.6 °F 69% 30.20 in 10.0 mi SW 3.5 mph - N/A   Clear
3:56 AM 28.4 °F - 17.6 °F 64% 30.20 in 10.0 mi Calm Calm - N/A   Clear
4:16 AM 26.6 °F - 17.6 °F 69% 30.21 in 10.0 mi Calm Calm - N/A   Clear
4:38 AM 24.8 °F - 17.6 °F 74% 30.21 in 10.0 mi Calm Calm - N/A   Clear
4:55 AM 24.8 °F - 17.6 °F 74% 30.21 in 10.0 mi Calm Calm - N/A   Clear
5:15 AM 23.0 °F 14.7 °F 17.6 °F 80% 30.22 in 10.0 mi East 6.9 mph - N/A   Clear
5:37 AM 23.0 °F 15.8 °F 17.6 °F 80% 30.23 in 10.0 mi ESE 5.8 mph - N/A   Clear
5:55 AM 23.0 °F 15.8 °F 17.6 °F 80% 30.23 in 10.0 mi SE 5.8 mph - N/A   Clear
6:15 AM 23.0 °F 17.0 °F 17.6 °F 80% 30.23 in 10.0 mi East 4.6 mph - N/A   Clear
6:55 AM 21.2 °F 12.6 °F 15.8 °F 80% 30.25 in 10.0 mi East 6.9 mph - N/A   Clear
7:15 AM 21.2 °F 11.7 °F 17.6 °F 86% 30.25 in 10.0 mi East 8.1 mph - N/A   Clear
7:37 AM 23.0 °F 14.7 °F 17.6 °F 80% 30.25 in 10.0 mi ESE 6.9 mph - N/A   Clear
7:55 AM 24.8 °F 16.1 °F 17.6 °F 74% 30.25 in 10.0 mi East 8.1 mph - N/A   Clear
8:55 AM 28.4 °F 21.2 °F 17.6 °F 64% 30.26 in 10.0 mi SE 6.9 mph - N/A   Clear
9:17 AM 30.2 °F 25.4 °F 17.6 °F 60% 30.26 in 10.0 mi SE 4.6 mph - N/A   Clear
9:58 AM 33.8 °F - 19.4 °F 56% 30.26 in 10.0 mi Calm Calm - N/A   Clear
10:16 AM 35.6 °F - 17.6 °F 48% 30.26 in 10.0 mi Calm Calm - N/A   Clear
10:37 AM 35.6 °F 32.8 °F 19.4 °F 52% 30.26 in 10.0 mi NNW 3.5 mph - N/A   Clear
11:35 AM 37.4 °F 34.9 °F 14.0 °F 38% 30.25 in 10.0 mi NNE 3.5 mph - N/A   Clear
11:55 AM 39.2 °F 37.0 °F 17.6 °F 42% 30.25 in 10.0 mi NNE 3.5 mph - N/A   Clear
12:18 PM 41.0 °F 38.0 °F 15.8 °F 36% 30.24 in 10.0 mi NNE 4.6 mph - N/A   Clear
12:35 PM 42.8 °F 40.1 °F 17.6 °F 36% 30.23 in 10.0 mi East 4.6 mph - N/A   Clear
12:55 PM 44.6 °F - 17.6 °F 34% 30.22 in 10.0 mi Calm Calm - N/A   Clear
1:17 PM 44.6 °F - 17.6 °F 34% 30.21 in 10.0 mi Calm Calm - N/A   Clear
1:35 PM 46.4 °F 44.3 °F 17.6 °F 32% 30.21 in 10.0 mi ENE 4.6 mph - N/A   Clear
1:55 PM 46.4 °F 44.3 °F 15.8 °F 29% 30.20 in 10.0 mi North 4.6 mph - N/A   Clear
2:18 PM 48.2 °F - 12.2 °F 24% 30.19 in 10.0 mi SE 3.5 mph - N/A   Clear
2:35 PM 48.2 °F - 12.2 °F 24% 30.19 in 10.0 mi NW 4.6 mph - N/A   Clear
2:57 PM 50.0 °F - 12.2 °F 22% 30.18 in 10.0 mi Calm Calm - N/A   Clear
3:15 PM 51.8 °F - 15.8 °F 24% 30.18 in 10.0 mi WNW 5.8 mph - N/A   Clear
3:35 PM 51.8 °F - 12.2 °F 21% 30.17 in 10.0 mi Calm Calm - N/A   Clear
4:17 PM 51.8 °F - 1.4 °F 13% 30.15 in 10.0 mi West 3.5 mph - N/A   Clear
4:35 PM 53.6 °F - 6.8 °F 15% 30.15 in 10.0 mi West 6.9 mph - N/A   Clear
4:57 PM 53.6 °F - 5.0 °F 14% 30.14 in 10.0 mi WNW 3.5 mph - N/A   Clear
5:15 PM 53.6 °F - 5.0 °F 14% 30.14 in 10.0 mi West 5.8 mph - N/A   Clear
5:35 PM 53.6 °F - 3.2 °F 13% 30.14 in 10.0 mi WNW 3.5 mph - N/A   Clear
5:58 PM 51.8 °F - 3.2 °F 14% 30.13 in 10.0 mi WSW 5.8 mph - N/A   Clear
6:15 PM 51.8 °F - 5.0 °F 15% 30.13 in 10.0 mi WSW 4.6 mph - N/A   Clear
6:35 PM 50.0 °F - 6.8 °F 17% 30.13 in 10.0 mi WSW 4.6 mph - N/A   Clear
7:15 PM 46.4 °F 44.3 °F 8.6 °F 22% 30.12 in 10.0 mi SSW 4.6 mph - N/A   Clear
7:35 PM 46.4 °F 45.2 °F 6.8 °F 20% 30.13 in 10.0 mi WSW 3.5 mph - N/A   Clear
7:58 PM 46.4 °F 45.2 °F 6.8 °F 20% 30.14 in 10.0 mi WSW 3.5 mph - N/A   Clear
8:15 PM 44.6 °F - 6.8 °F 21% 30.14 in 10.0 mi Calm Calm - N/A   Clear
8:38 PM 39.2 °F - 12.2 °F 33% 30.14 in 10.0 mi Calm Calm - N/A   Clear
8:55 PM 42.8 °F - 10.4 °F 27% 30.15 in 10.0 mi Calm Calm - N/A   Clear
9:15 PM 41.0 °F 39.0 °F 10.4 °F 29% 30.15 in 10.0 mi East 3.5 mph - N/A   Clear
9:55 PM 35.6 °F 31.7 °F 12.2 °F 38% 30.16 in 10.0 mi East 4.6 mph - N/A   Clear
10:15 PM 35.6 °F - 12.2 °F 38% 30.16 in 10.0 mi Calm Calm - N/A   Clear
10:37 PM 37.4 °F - 12.2 °F 36% 30.16 in 10.0 mi Calm Calm - N/A   Clear
10:55 PM 33.8 °F 28.6 °F 14.0 °F 44% 30.16 in 10.0 mi East 5.8 mph - N/A   Clear
11:15 PM 32.0 °F 27.5 °F 14.0 °F 48% 30.17 in 10.0 mi ESE 4.6 mph - N/A   Clear
11:55 PM 32.0 °F 24.8 °F 15.8 °F 51% 30.16 in 10.0 mi ESE 8.1 mph - N/A   Clear